Weather History for Elmendorf AFB, AK

Change the Weather History Date:

Sunday, October 7, 2012

  Actual Average Record
Temperature  
Mean Temperature 44 °F -  
Max Temperature 46 °F 43 °F 52 °F (1993)
Min Temperature 42 °F 33 °F 10 °F (1969)
Degree Days  
Heating Degree Days 21    
Moisture  
Dew Point 44 °F    
Average Humidity 97    
Maximum Humidity 100    
Minimum Humidity 93    
Precipitation  
Precipitation 0.16 in - - ()
Sea Level Pressure  
Sea Level Pressure 30.27 in    
Wind  
Wind Speed 2 mph (North)    
Max Wind Speed 10 mph    
Max Gust Speed -    
Visibility 6 miles    
Events Fog , Rain    
Averages and records for this station are not official NWS values.
T = Trace of Precipitation, MM = Missing Value Source: NWS Daily Summary

Daily Weather History Graph

Daily Weather History Graph

Search for Another Location

Airport:

Trip Planner

Search our weather history database for the weather conditions in past years. The results will help you decide how hot, cold, wet, or windy it might be!

Date:

Astronomy

Oct. 07, 2012 Rise Set
Actual Time 8:22 AM AKDT 7:09 PM AKDT
Civil Twilight 7:39 AM AKDT 7:52 PM AKDT
Nautical Twilight 6:49 AM AKDT 8:42 PM AKDT
Astronomical Twilight 5:57 AM AKDT 9:34 PM AKDT
Moon 11:22 PM AKDT (10/7) 4:18 PM AKDT (10/7)
Length of Visible Light 12h 13m
Length of Day
10h 46m
Waning Gibbous, 55% of the Moon is Illuminated
Oct 7
Waning Gibbous
Oct 7
Last Quarter
Oct 15
New
Oct 21
First Quarter
Oct 29
Full

Hourly Weather History & Observations

Time (AKDT) Temp. Windchill Dew Point Humidity Pressure Visibility Wind Dir Wind Speed Gust Speed Precip Events Conditions
12:55 AM 42.8 °F - 41.7 °F 96% 30.30 in 10.0 mi Calm Calm - N/A   Partly Cloudy
1:55 AM 43.9 °F - 43.0 °F 97% 30.32 in 10.0 mi Calm Calm - N/A   Clear
2:47 AM 42.8 °F - 42.8 °F 100% 30.31 in 10.0 mi Calm Calm - N/A   Mostly Cloudy
2:55 AM 43.5 °F 41.9 °F 42.3 °F 95% 30.31 in 10.0 mi NE 3.5 mph - 0.00 in   Light Drizzle
3:55 AM 44.2 °F 41.0 °F 43.2 °F 96% 30.30 in 10.0 mi NE 5.8 mph - 0.01 in Rain Light Rain
4:55 AM 44.8 °F 42.4 °F 42.8 °F 93% 30.30 in 10.0 mi North 4.6 mph - 0.02 in Rain Light Rain
5:55 AM 44.1 °F 40.8 °F 42.6 °F 95% 30.29 in 10.0 mi North 5.8 mph - 0.02 in Rain Light Rain
6:55 AM 43.2 °F 39.0 °F 42.6 °F 98% 30.27 in 10.0 mi North 6.9 mph - 0.01 in Rain Light Rain
7:55 AM 43.7 °F 42.1 °F 42.1 °F 94% 30.26 in 10.0 mi North 3.5 mph - 0.00 in   Light Drizzle
8:04 AM 42.8 °F - 42.8 °F 100% 30.26 in 10.0 mi Calm Calm - N/A   Overcast
8:20 AM 42.8 °F - 42.8 °F 100% 30.27 in 10.0 mi Calm Calm - N/A   Light Drizzle
8:55 AM 43.2 °F 40.5 °F 42.8 °F 99% 30.27 in 10.0 mi NNW 4.6 mph - 0.00 in Rain Light Rain
9:55 AM 44.1 °F 40.1 °F 43.0 °F 96% 30.27 in 10.0 mi North 6.9 mph - 0.01 in Rain Light Rain
10:55 AM 44.6 °F - 43.7 °F 97% 30.28 in 10.0 mi Calm Calm - 0.00 in Rain Light Rain
11:37 AM 44.6 °F - 44.6 °F 100% 30.29 in 8.0 mi Calm Calm - N/A Rain Light Rain
11:55 AM 45.1 °F 43.7 °F 44.4 °F 97% 30.29 in 8.0 mi NE 3.5 mph - 0.02 in Rain Light Rain
12:28 PM 46.4 °F - 44.6 °F 93% 30.28 in 10.0 mi Calm Calm - N/A Rain Light Rain
12:55 PM 45.9 °F - 45.0 °F 97% 30.29 in 10.0 mi Calm Calm - 0.04 in Rain Light Rain
1:10 PM 46.4 °F - 44.6 °F 93% 30.29 in 9.0 mi Calm Calm - N/A Rain Light Rain
1:16 PM 46.4 °F - 44.6 °F 93% 30.29 in 10.0 mi Calm Calm - N/A Rain Light Rain
1:27 PM 46.4 °F - 44.6 °F 93% 30.29 in 10.0 mi Calm Calm - N/A Rain Light Rain
1:43 PM 46.4 °F - 46.4 °F 100% 30.29 in 10.0 mi Calm Calm - N/A   Light Drizzle
1:55 PM 45.9 °F - 45.5 °F 99% 30.29 in 10.0 mi Calm Calm - 0.02 in   Light Drizzle
2:48 PM 46.4 °F - 44.6 °F 93% 30.29 in 10.0 mi Calm Calm - N/A   Light Drizzle
2:55 PM 46.0 °F - 45.5 °F 98% 30.29 in 10.0 mi Calm Calm - 0.00 in   Light Drizzle
3:26 PM 46.4 °F - 46.4 °F 100% 30.29 in 6.0 mi Calm Calm - N/A   Light Drizzle
3:55 PM 46.6 °F - 45.9 °F 97% 30.28 in 10.0 mi Calm Calm - 0.00 in Rain Light Rain
4:08 PM 46.4 °F - 46.4 °F 100% 30.28 in 10.0 mi Calm Calm - N/A Rain Light Rain
4:55 PM 46.6 °F - 46.0 °F 98% 30.26 in 10.0 mi Calm Calm - 0.01 in Rain Light Rain
5:20 PM 46.4 °F - 46.4 °F 100% 30.26 in 10.0 mi Calm Calm - N/A   Overcast
5:55 PM 46.4 °F - 45.9 °F 98% 30.27 in 10.0 mi Calm Calm - 0.00 in   Overcast
6:55 PM 46.4 °F 44.3 °F 45.5 °F 97% 30.27 in 10.0 mi NNE 4.6 mph - N/A   Overcast
7:55 PM 46.0 °F - 45.3 °F 97% 30.26 in 10.0 mi Calm Calm - N/A   Overcast
8:55 PM 46.0 °F - 45.5 °F 98% 30.26 in 10.0 mi Calm Calm - N/A   Overcast
9:06 PM 46.4 °F 42.9 °F 44.6 °F 93% 30.26 in 10.0 mi NNW 6.9 mph - N/A   Overcast
9:16 PM 46.4 °F 42.9 °F 44.6 °F 93% 30.26 in 2.5 mi NNW 6.9 mph - N/A   Overcast
9:18 PM 46.4 °F 42.4 °F 44.6 °F 93% 30.26 in 1.8 mi NNW 8.1 mph - N/A   Overcast
9:19 PM 46.4 °F 41.9 °F 44.6 °F 93% 30.26 in 1.5 mi NNW 9.2 mph - N/A   Overcast
9:20 PM 46.4 °F 42.4 °F 44.6 °F 93% 30.26 in 1.2 mi North 8.1 mph - N/A   Overcast
9:21 PM 46.4 °F 41.9 °F 44.6 °F 93% 30.26 in 1.2 mi North 9.2 mph - N/A   Overcast
9:22 PM 46.4 °F 41.5 °F 44.6 °F 93% 30.26 in 1.0 mi North 10.4 mph - N/A   Overcast
9:23 PM 46.4 °F 42.4 °F 44.6 °F 93% 30.26 in 1.0 mi NNW 8.1 mph - N/A   Overcast
9:26 PM 46.4 °F 41.9 °F 44.6 °F 93% 30.26 in 0.8 mi NNW 9.2 mph - N/A   Overcast
9:33 PM 46.4 °F 41.9 °F 44.6 °F 93% 30.26 in 0.5 mi NNW 9.2 mph - N/A Fog Fog
9:34 PM 46.4 °F 41.9 °F 44.6 °F 93% 30.26 in 0.5 mi NNW 9.2 mph - N/A Fog Fog
9:43 PM 46.4 °F - 44.6 °F 93% 30.26 in 0.5 mi Calm Calm - N/A Fog Fog
9:52 PM 46.4 °F - 44.6 °F 93% 30.26 in 0.5 mi Calm Calm - N/A Fog Fog
9:55 PM 45.5 °F 43.2 °F 45.3 °F 99% 30.26 in 0.5 mi NE 4.6 mph - N/A Fog Fog
9:58 PM 44.6 °F 43.1 °F 44.6 °F 100% 30.26 in 0.2 mi NE 3.5 mph - N/A Fog Fog
10:02 PM 44.6 °F - 44.6 °F 100% 30.25 in 0.2 mi Calm Calm - N/A Fog Fog
10:04 PM 44.6 °F 42.2 °F 44.6 °F 100% 30.25 in 0.2 mi ENE 4.6 mph - N/A Fog Fog
10:09 PM 44.6 °F - 44.6 °F 100% 30.25 in 0.5 mi Calm Calm - N/A Fog Fog
10:23 PM 44.6 °F - 44.6 °F 100% 30.25 in 0.5 mi Calm Calm - N/A Fog Fog
10:27 PM 44.6 °F 43.1 °F 44.6 °F 100% 30.25 in 0.5 mi WNW 3.5 mph - N/A Fog Fog
10:35 PM 44.6 °F 41.4 °F 44.6 °F 100% 30.26 in 0.8 mi NNW 5.8 mph - N/A   Mist
10:41 PM 44.6 °F 39.7 °F 44.6 °F 100% 30.26 in 3.0 mi NNW 9.2 mph - N/A   Overcast
10:55 PM 45.0 °F 42.6 °F 44.8 °F 99% 30.25 in 6.0 mi North 4.6 mph - N/A   Overcast
11:19 PM 44.6 °F - 44.6 °F 100% 30.26 in 6.0 mi Calm Calm - N/A   Overcast
11:46 PM 44.6 °F - 44.6 °F 100% 30.26 in 6.0 mi Calm Calm - N/A   Overcast
11:55 PM 44.8 °F - 44.6 °F 99% 30.25 in 6.0 mi Calm Calm - N/A   Overcast